Lexington Weather

Lexington, Massachusetts, USA

40°F
11/27/2020 2:56am 
  • Lexington Conditions: Fog, Overcast
  • Temperature: 39.7°F / 4.3°CColder 0.6°F than last hour.
  • Dew Point: 39.0°FDecreased 0.6°Fsince last hour.
  • Relative Humidity: 97
  • Wind: Calm, 10-min avg: Calm, gust: None
  • Barometer: 29.97 in Steady
  • Visibility: ¼ mile
  • Rain Today: 0.00 in
  •   
Southeast Middlesex County - Special Weather Statement
 - SEE ALL NEARBY ALERTS -

Regional Weather Roundup
for Boston / Norton, MA

        
000
ASUS41 KBOX 251004
RWRBOX

REGIONAL WEATHER ROUNDUP
NATIONAL WEATHER SERVICE BOSTON/NORTON MA
500 AM EST WED NOV 25 2020

NOTE:  "FAIR" INDICATES FEW OR NO CLOUDS BELOW 12,000 FEET WITH NO 
SIGNIFICANT WEATHER AND/OR OBSTRUCTIONS TO VISIBILITY.

MAZALL-251100-
EASTERN MASSACHUSETTS
  
CITY           SKY/WX    TMP DP  RH WIND       PRES   REMARKS
BOSTON         CLOUDY    30  19  63 N3        30.47F                  
BEVERLY        CLOUDY    29  21  72 NW3       30.46F                  
LAWRENCE       MOCLDY    27  18  69 N3        30.49F                  
BEDFORD        CLOUDY    27  19  72 CALM      30.45F                  
BLUE HILL        N/A     29  20  69 E6        30.42F WCI  23          
NORWOOD        CLOUDY    30  18  60 CALM      30.46F                  
MARSHFIELD     CLOUDY    32  27  80 CALM      30.47S                  
PLYMOUTH       CLOUDY    30  26  85 CALM      30.46F                  
TAUNTON        CLOUDY    31  24  75 CALM      30.46S                  
NEW BEDFORD    CLOUDY    32  26  78 CALM      30.45F                  
$$

MAZALL-251100-
CAPE COD AND THE ISLANDS
  
CITY           SKY/WX    TMP DP  RH WIND       PRES   REMARKS
FALMOUTH       CLOUDY    34  25  69 E6        30.46S WCI  29          
HYANNIS        CLOUDY    30  25  81 CALM      30.45F                  
CHATHAM        MOCLDY    32  26  78 CALM      30.48R                  
PROVINCETOWN   MOCLDY    33  28  81 SE5       30.48S WCI  29          
NANTUCKET      MOCLDY    38  29  70 SE7       30.47R                  
MARTHAS VNYRD  CLOUDY    37  29  72 E6        30.45F                  
$$
 
MAZALL-251100-
CENTRAL AND WESTERN MASSACHUSETTS
  
CITY           SKY/WX    TMP DP  RH WIND       PRES   REMARKS
WORCESTER      CLOUDY    27  15  61 NE5       30.40F WCI  22          
FITCHBURG      CLOUDY    27  17  66 CALM      30.45F                  
ORANGE         CLOUDY    28  20  71 CALM      30.43F                  
SPRINGFIELD    CLOUDY    31  17  56 NE6       30.42S WCI  25          
WESTFIELD      CLOUDY    32  19  58 N5        30.42S WCI  27          
NORTH ADAMS    CLOUDY    31  22  69 E16       30.37S WCI  20          
PITTSFIELD     CLOUDY    31  19  61 E3        30.33S                  
$$
 
RIZALL-251100-
RHODE ISLAND
  
CITY           SKY/WX    TMP DP  RH WIND       PRES   REMARKS
PROVIDENCE     CLOUDY    33  20  58 N6        30.45  WCI  28          
NEWPORT        CLOUDY    35  25  66 E7        30.41F WCI  29          
BLOCK ISLAND   CLOUDY    46  32  58 S9        30.41F                  
SMITHFIELD     CLOUDY    29  20  69 NE3       30.43F                  
WESTERLY       CLOUDY    34  23  64 N8        30.42F WCI  27          
$$
 
CTZALL-251100-
CONNECTICUT
  
CITY           SKY/WX    TMP DP  RH WIND       PRES   REMARKS
BRADLEY INTL   CLOUDY    33  24  69 N6        30.42F WCI  28          
HARTFORD       CLOUDY    36  20  52 NE3       30.42F                  
BRIDGEPORT     CLOUDY    48  34  58 SE9       30.37F                  
DANBURY        CLOUDY    36  24  62 NE6       30.37F WCI  31          
GROTON         CLOUDY    37  26  64 NE12      30.41F WCI  29          
NEW HAVEN      CLOUDY    42  30  62 E8        30.39S                  
CHESTER        CLOUDY    36  23  60 E5        30.40R WCI  32          
MERIDEN        CLOUDY    36  22  56 N3        30.41F                  
WILLIMANTIC    CLOUDY    32  21  64 N5        30.43F WCI  27          
OXFORD         CLOUDY    36  25  64 E9        30.37S WCI  29          
$$

MEZ002-015-021-024-NHZ003-005-008-011-012-014-VTZ005-008-251100-
NORTHERN NEW ENGLAND
  
CITY           SKY/WX    TMP DP  RH WIND       PRES   REMARKS
PORTLAND ME    CLOUDY    25  17  72 N5        30.52R WCI  19          
BANGOR ME      MOCLDY    21  14  74 CALM      30.53S                  
CONCORD NH     CLOUDY    25  14  63 CALM      30.47S                  
MANCHESTER NH  CLOUDY    27  15  61 N3        30.45S                  
NASHUA NH      CLOUDY    26  19  74 NW3       30.47F                  
PORTSMOUTH NH  CLOUDY    27  15  60 N5        30.47  WCI  22          
JAFFREY NH     CLOUDY    26  15  63 CALM      30.40F                  
KEENE NH       CLOUDY    27  21  78 N3        30.44F                  
BURLINGTON VT  FLURRIES  27  15  61 SE6       30.35S WCI  20          
MT. WASHINGTON NOT AVBL                                               
$$

NYZ052-076-251100-
EASTERN NEW YORK
  
CITY           SKY/WX    TMP DP  RH WIND       PRES   REMARKS
ALBANY         CLOUDY    26  21  81 CALM      30.36R                  
NEW YORK CITY  MOCLDY    46  28  49 E3        30.36S                  
$$
 
ANZALL-251100-
MARINE OBSERVATIONS
  
STATION/POSITION TIME  TEMP    WIND        PRES    VSBY  WAVE
                       AIR SEA DIR/SP/G                  HT/PER
                 (UTC) (F)     (DEG/KT/KT) (MB)    (MI)  (FT/S)
BOSTON BUOY      0940   41 50  120/ 12/ 16 1032.1F
BUZZARDS BAY     0900           90/ 12/ 14 1032.2R
NANTUCKET SOUND  0940      50  140/  8/ 12   N/A
MASS BAY-STELLWA NOT AVBL
ISLE OF SHOALS   0900   35     120/ 10/ 13 1031.8F
S OF BLOCK IS    0926      57                N/A           2/11
$$

......................KEY.........................
  SKY/WX - SKY CONDITION/PRESENT WEATHER
  TMP    - TEMPERATURE IN FAHRENHEIT
  DWPT   - DEWPOINT IN FAHRENHEIT
  RH     - RELATIVE HUMIDITY IN PERCENT
  WIND   - DIRECTION AND SPEED IN MPH
  PRES   - MEAN SEA LEVEL PRESSURE IN INCHES OF HG
  WCI    - WIND CHILL INDEX
  VSB    - VISIBILITY IN MILES
  HX     - HEAT INDEX
  TC     - TEMPERATURE IN CELSIUS
  VRB    - VARIABLE WIND DIRECTION
  N/A    - NOT AVAILABLE
  
      

Other recent Regional Weather Roundups

Thu Nov 26, 11:04pm

Thu Nov 26, 10:04pm

Thu Nov 26, 9:04pm

Thu Nov 26, 8:04pm

Thu Nov 26, 7:04pm

Thu Nov 26, 6:04pm

Thu Nov 26, 5:04pm

Thu Nov 26, 4:04pm

Thu Nov 26, 2:04pm

Thu Nov 26, 1:04pm

Thu Nov 26, 12:04pm

Thu Nov 26, 11:04am

Thu Nov 26, 10:04am

Thu Nov 26, 9:04am

Thu Nov 26, 8:04am

Thu Nov 26, 7:04am

Thu Nov 26, 6:04am

Thu Nov 26, 5:04am

Thu Nov 26, 4:04am

Thu Nov 26, 3:04am

Thu Nov 26, 2:04am

Thu Nov 26, 1:04am

Thu Nov 26, 12:04am

Wed Nov 25, 11:04pm

Wed Nov 25, 10:04pm

Wed Nov 25, 9:04pm

Wed Nov 25, 8:04pm

Wed Nov 25, 7:04pm

Wed Nov 25, 6:04pm

Wed Nov 25, 5:04pm

Wed Nov 25, 4:04pm

Wed Nov 25, 3:05pm

Wed Nov 25, 2:04pm

Wed Nov 25, 1:04pm

Wed Nov 25, 12:05pm

Wed Nov 25, 11:04am

Wed Nov 25, 10:04am

Wed Nov 25, 9:04am

Wed Nov 25, 8:04am

Wed Nov 25, 7:04am

Wed Nov 25, 6:04am

Wed Nov 25, 4:04am

Wed Nov 25, 3:04am

Wed Nov 25, 2:04am

Wed Nov 25, 1:04am

Wed Nov 25, 12:04am

Tue Nov 24, 11:04pm

Tue Nov 24, 10:04pm

Tue Nov 24, 9:04pm

Tue Nov 24, 8:04pm

Tue Nov 24, 7:04pm

Tue Nov 24, 6:04pm

Tue Nov 24, 5:04pm

Tue Nov 24, 4:05pm

Tue Nov 24, 3:05pm

Tue Nov 24, 2:05pm

Tue Nov 24, 1:05pm

Tue Nov 24, 12:04pm

Tue Nov 24, 11:04am

Tue Nov 24, 10:04am

Tue Nov 24, 9:04am

Tue Nov 24, 8:04am

Tue Nov 24, 7:04am

Tue Nov 24, 6:04am

Tue Nov 24, 5:04am

Tue Nov 24, 4:05am

Tue Nov 24, 3:04am

Tue Nov 24, 2:04am

Tue Nov 24, 1:04am

Tue Nov 24, 12:05am

Mon Nov 23, 11:04pm

Mon Nov 23, 10:04pm

Mon Nov 23, 9:04pm

Mon Nov 23, 8:04pm

Mon Nov 23, 7:04pm

Mon Nov 23, 6:04pm

Mon Nov 23, 5:04pm

Mon Nov 23, 4:04pm

Mon Nov 23, 3:04pm

Mon Nov 23, 2:04pm

Mon Nov 23, 1:04pm

Mon Nov 23, 12:04pm

Mon Nov 23, 11:04am

Mon Nov 23, 10:04am

Mon Nov 23, 9:04am

Mon Nov 23, 8:05am

Mon Nov 23, 7:04am

Mon Nov 23, 6:04am

Mon Nov 23, 5:04am

Mon Nov 23, 4:04am

Mon Nov 23, 3:04am

Mon Nov 23, 2:04am

Mon Nov 23, 1:04am

Mon Nov 23, 12:05am

Sun Nov 22, 11:04pm

Sun Nov 22, 10:04pm

Sun Nov 22, 9:04pm

Sun Nov 22, 8:05pm

Sun Nov 22, 7:04pm

Sun Nov 22, 6:04pm

Sun Nov 22, 5:04pm

Sun Nov 22, 4:04pm

Sun Nov 22, 3:04pm

Sun Nov 22, 2:04pm

Sun Nov 22, 1:05pm

Sun Nov 22, 12:04pm

Sun Nov 22, 11:04am

Sun Nov 22, 10:05am

Sun Nov 22, 9:04am

Sun Nov 22, 8:04am

Sun Nov 22, 7:04am

Sun Nov 22, 6:04am

Sun Nov 22, 5:04am

Sun Nov 22, 4:04am

Sun Nov 22, 3:04am

Sun Nov 22, 2:04am

Sun Nov 22, 1:04am

Sun Nov 22, 12:04am

Sat Nov 21, 11:04pm

Sat Nov 21, 10:04pm

Sat Nov 21, 9:04pm

Sat Nov 21, 8:05pm

Sat Nov 21, 7:04pm

Sat Nov 21, 6:04pm

Sat Nov 21, 5:04pm

Sat Nov 21, 4:05pm

Sat Nov 21, 3:04pm

Sat Nov 21, 2:04pm

Sat Nov 21, 1:05pm

Sat Nov 21, 12:04pm

Sat Nov 21, 11:04am

Sat Nov 21, 10:04am

Sat Nov 21, 9:04am

Sat Nov 21, 8:04am

Sat Nov 21, 7:04am

Sat Nov 21, 6:04am

Sat Nov 21, 5:04am

Sat Nov 21, 4:04am

Sat Nov 21, 3:04am

Sat Nov 21, 2:04am

Sat Nov 21, 1:04am

Sat Nov 21, 12:04am

Fri Nov 20, 11:04pm

Fri Nov 20, 10:04pm

Fri Nov 20, 9:04pm

Fri Nov 20, 8:04pm

Fri Nov 20, 7:04pm

Fri Nov 20, 6:04pm

Fri Nov 20, 5:04pm

Fri Nov 20, 4:05pm

Fri Nov 20, 3:05pm

Fri Nov 20, 2:04pm

Fri Nov 20, 1:04pm

Fri Nov 20, 12:04pm

Fri Nov 20, 11:04am

Fri Nov 20, 10:04am

Fri Nov 20, 9:04am

Fri Nov 20, 8:04am

Fri Nov 20, 7:04am

Fri Nov 20, 6:04am

Fri Nov 20, 5:04am

Fri Nov 20, 4:04am

Fri Nov 20, 3:04am

Meta data:

ID: 943b9ea5-89f7-4ec8-9418-36abc01fe255
Link: https://api.weather.gov/products/943b9ea5-89f7-4ec8-9418-36abc01fe255